Location: Newark
(41.9000°N, 12.4833°E)
Time: 21:42:15
(UTC+00:00)

NOAA 18 - Pass Details

Date: 25 May 2019
Orbit: 840 x 861 km, 99.1° (Epoch: 17 June)

Event Time Altitude Azimuth Distance (km) Brightness Sun altitude
Rises 20:05:15 0° 194° (SSW) 3,417 8.0 -14.4°
Reaches altitude 10° 20:07:55 10° 205° (SSW) 2,488 7.4 -14.7°
Maximum altitude 20:12:39 29° 264° (W) 1,539 6.9 -15.3°
Drops below altitude 10° 20:17:25 10° 324° (NW) 2,507 9.0 -15.9°
Sets 20:20:09 0° 335° (NNW) 3,449 9.9 -16.2°
